Regional Weather Roundup
Issued by NWS Albany, NY

Home | Current Version | Previous Version | Graphics & Text | Print | Product List | Glossary On
Versions: 1 2 3 4 5 6 7 8 9 10 11 12 13 14 15 16 17 18 19 20 21 22 23 24 25 26 27 28 29 30 31 32 33 34 35 36 37 38 39 40 41 42 43 44 45 46 47 48 49 50
000
ASUS41 KALY 251610
RWRALY

NEW YORK STATE HOURLY WEATHER ROUNDUP
NATIONAL WEATHER SERVICE ALBANY NY
1200 PM EDT SUN SEP 25 2016

NOTE: "FAIR" INDICATES FEW OR NO CLOUDS BELOW 12,000 FEET WITH NO
SIGNIFICANT WEATHER AND/OR NO OBSTRUCTIONS TO VISIBILITY.

NYZ032-033-038>043-046>054-057>066-NYZ062>081-082-084-251700-
EAST


CITY           SKY/WX    TMP DP  RH WIND       PRES   REMARKS
ALBANY         MOSUNNY   59  37  44 NW9       30.22F
GLENS FALLS    SUNNY     58  37  45 CALM      30.20F
POUGHKEEPSIE   SUNNY     61  32  33 NW8G17    30.20F
NEWBURGH       SUNNY     61  37  41 N12       30.22F
MONTGOMERY     SUNNY     63  38  39 NE6       30.20F
WHITE PLAINS   SUNNY     63  31  30 NW12      30.19F
ISLIP          SUNNY     63  36  36 NW7       30.18F
NEW YORK CITY  SUNNY     64  38  38 N14       30.19F
CENTRAL PARK   SUNNY     64  38  38 NE10      30.23S
$$

NYZ005>009-017-018-044>046-055-056-251700-
CENTRAL


CITY           SKY/WX    TMP DP  RH WIND       PRES   REMARKS
FULTON         SUNNY     58  38  47 S5        30.26F
SYRACUSE       MOSUNNY   56  36  47 CALM      30.26F
ROME           SUNNY     59  40  49 N9        30.26F
ELMIRA         SUNNY     62  36  37 NE9       30.23F
BINGHAMTON     SUNNY     55  32  41 VRB3      30.24F
MONTICELLO     SUNNY     59  30  33 N10       30.22F
$$

NYZ026>034-041>043-087-251700-
NORTH


CITY           SKY/WX    TMP DP  RH WIND       PRES   REMARKS
WATERTOWN      SUNNY     57  36  45 CALM      30.27F
FORT DRUM      NOT AVBL
OGDENSBURG     FAIR      60  41  48 NW7       30.25F
MASSENA        SUNNY     57  39  51 N6        30.25F
SARANAC LAKE   SUNNY     52  32  46 NW10      30.20F
PLATTSBURGH    SUNNY     58  29  33 N16       30.20F
$$

NYZ001>004-010>016-019>021-085-251700-
WEST


CITY           SKY/WX    TMP DP  RH WIND       PRES   REMARKS
NIAGARA FALLS  MOSUNNY   64  41  42 CALM      30.24F
BUFFALO        MOSUNNY   62  43  49 N8        30.24F
DUNKIRK        SUNNY     63  41  44 E8        30.24F
JAMESTOWN      SUNNY     57  43  58 SE6       30.24S
WELLSVILLE     SUNNY     58  37  45 N3        30.26F
ROCHESTER      MOSUNNY   60  43  53 CALM      30.26F
PENN YAN       SUNNY     59  38  45 CALM      30.26F
$$

             KEY
       WCI = WIND CHILL INDEX
       VSB = VISIBILITY
       HX  = HEAT INDEX
$$



USA.gov is the U.S. government's official web portal to all federal, state and local government web resources and services.